Location: Hopewell Observatory
(38.8698°N, 77.6988°W)
Time: 10:17:16
(UTC-04:00)

Amateur Radio Satellites - All Passes

Search period start: 31 October 2014 09:47
Search period end: 01 November 2014 09:47
Location: Hopewell Observatory, 38.8698°N, 77.6988°W

Satellite Date Start Highest point End Downlink Frequencies (MHz)
Time Altitude Azimuth
UKube-1 31 Oct 09:54:44 09:57:25 16° 93° (E) 10:00:05 145.840 MHz, 145.915 MHz
Oscar 11 31 Oct 10:28:47 10:32:49 38° 98° (E) 10:36:49 145.825 FM, Beacon 2401.500 USB
SO-50 31 Oct 10:33:39 10:36:40 18° 109° (ESE) 10:39:45 436.795 FM
ISS 31 Oct 10:39:43 10:43:02 88° 315° (NW) 10:46:22 145.800 FM
KITSAT 1 31 Oct 10:41:57 10:49:31 46° 110° (ESE) 10:57:05 435.175 FM
FUNcube-1 31 Oct 10:45:29 10:48:50 23° 95° (E) 10:52:08 145.950 - 145.970 MHz USB
Sapphire 31 Oct 11:12:01 11:16:39 28° 51° (NE) 11:21:15 437.095 MHz 1200 baud AX-25 AFSK
HO-68 31 Oct 11:24:04 11:30:32 38° 296° (WNW) 11:37:00 435.675 MHz FM
UKube-1 31 Oct 11:29:39 11:33:47 42° 288° (WNW) 11:37:52 145.840 MHz, 145.915 MHz
PCSat 31 Oct 11:33:24 11:38:35 43° 56° (NE) 11:43:43 145.825 MHz
ZACube-1 31 Oct 11:38:10 11:42:22 81° 283° (WNW) 11:46:31 437.345 MHz
Oscar 11 31 Oct 12:05:48 12:08:41 18° 293° (WNW) 12:11:35 145.825 FM, Beacon 2401.500 USB
SO-50 31 Oct 12:12:30 12:16:49 46° 306° (NW) 12:21:17 436.795 FM
ISS 31 Oct 12:17:55 12:20:08 17° 339° (NNW) 12:22:22 145.800 FM
FUNcube-1 31 Oct 12:21:40 12:25:09 26° 291° (WNW) 12:28:36 145.950 - 145.970 MHz USB
KITSAT 1 31 Oct 12:37:25 12:44:57 41° 310° (NW) 12:52:31 435.175 FM
Oscar 19 31 Oct 12:43:10 12:46:31 18° 64° (ENE) 12:49:52 437.125 CW, 437.150 USB
JAS-1B 31 Oct 12:44:09 12:47:59 19° 62° (ENE) 12:51:50 435.800 - 435.900 CW/SSB
Sapphire 31 Oct 12:55:06 13:00:12 42° 249° (WSW) 13:05:15 437.095 MHz 1200 baud AX-25 AFSK
UOSAT-12 31 Oct 12:56:39 13:01:05 48° 116° (ESE) 13:05:37 437.025 FM, 437.400 FM
PCSat 31 Oct 13:17:22 13:21:42 25° 253° (WSW) 13:26:01 145.825 MHz
AO-27 31 Oct 13:19:26 13:22:38 17° 62° (ENE) 13:25:50 436.795 MHz FM
Oscar 16 31 Oct 13:28:18 13:33:13 48° 72° (ENE) 13:38:10 437.025 USB, Beacon 2401.1428
Saudisat 1A 31 Oct 13:35:05 13:36:31 11° 40° (NE) 13:37:57 436.775 MHz
Gurwin Techsat 1B 31 Oct 13:35:49 13:37:50 12° 60° (ENE) 13:39:51 435.225 FM
TMSAT-1 31 Oct 13:43:52 13:44:22 10° 58° (ENE) 13:44:51 436.925 FM
Uribyol 2 31 Oct 14:01:11 14:06:04 42° 70° (ENE) 14:10:58 436.500 FM
AO-Echo 31 Oct 14:03:44 14:08:33 53° 72° (ENE) 14:13:33 ?
ITAMSAT 1 31 Oct 14:09:01 14:13:59 47° 71° (ENE) 14:18:59 435.822 SSB
AO-7 31 Oct 14:10:40 14:13:00 11° 45° (NE) 14:15:20 29.400 - 29.500 MHz
Oscar 19 31 Oct 14:20:22 14:25:24 54° 260° (W) 14:30:26 437.125 CW, 437.150 USB
JAS-1B 31 Oct 14:32:36 14:38:15 53° 259° (W) 14:43:49 435.800 - 435.900 CW/SSB
UOSAT-12 31 Oct 14:37:55 14:41:30 21° 314° (NW) 14:45:07 437.025 FM, 437.400 FM
KITSAT 1 31 Oct 14:39:53 14:42:57 12° 335° (NNW) 14:46:01 435.175 FM
AO-27 31 Oct 14:56:27 15:01:36 61° 259° (WSW) 15:06:48 436.795 MHz FM
Oscar 16 31 Oct 15:09:15 15:12:48 19° 267° (W) 15:16:22 437.025 USB, Beacon 2401.1428
Gurwin Techsat 1B 31 Oct 15:11:43 15:17:02 86° 256° (WSW) 15:22:23 435.225 FM
Saudisat 1A 31 Oct 15:12:21 15:16:48 81° 58° (ENE) 15:21:13 436.775 MHz
TMSAT-1 31 Oct 15:18:05 15:23:23 81° 75° (ENE) 15:28:43 436.925 FM
ISS 31 Oct 15:33:43 15:35:48 15° 20° (NNE) 15:37:54 145.800 FM
Uribyol 2 31 Oct 15:41:39 15:45:40 22° 266° (W) 15:49:42 436.500 FM
AO-Echo 31 Oct 15:44:31 15:47:39 17° 269° (W) 15:50:52 ?
ITAMSAT 1 31 Oct 15:49:56 15:53:41 20° 267° (W) 15:57:28 435.822 SSB
AO-7 31 Oct 15:55:59 16:03:57 55° 66° (ENE) 16:11:57 29.400 - 29.500 MHz
Uosat F 31 Oct 15:56:02 16:00:11 26° 67° (ENE) 16:04:20 435.120 FM
JAS-2 31 Oct 16:52:22 16:57:49 31° 63° (ENE) 17:03:50 435.800 - 435.900 CW/SSB, 435.910 FM
TMSAT-1 31 Oct 17:02:27 17:03:53 11° 271° (W) 17:05:20 436.925 FM
Hamsat 31 Oct 17:06:22 17:08:43 15° 66° (ENE) 17:11:04 145.90 MHz
ISS 31 Oct 17:09:37 17:12:58 75° 38° (NE) 17:16:18 145.800 FM
Uosat F 31 Oct 17:34:15 17:38:48 34° 262° (W) 17:43:22 435.120 FM
AO-7 31 Oct 17:49:53 17:57:00 32° 263° (W) 18:04:10 29.400 - 29.500 MHz
OPAL 31 Oct 18:04:32 18:09:06 36° 100° (E) 18:13:38 ?
JAS-2 31 Oct 18:36:38 18:42:32 45° 264° (W) 18:49:13 435.800 - 435.900 CW/SSB, 435.910 FM
KITSAT 1 31 Oct 18:36:43 18:42:35 21° 38° (NE) 18:48:24 435.175 FM
Hamsat 31 Oct 18:40:18 18:44:17 43° 261° (W) 18:48:17 145.90 MHz
ISS 31 Oct 18:48:31 18:49:12 11° 233° (SW) 18:49:53 145.800 FM
SO-50 31 Oct 19:05:36 19:08:40 17° 43° (NE) 19:11:46 436.795 FM
SO-67 31 Oct 19:23:22 19:26:46 67° 76° (ENE) 19:30:11 435.3500 MHz FM
RS-15 31 Oct 19:42:00 19:49:14 20° 100° (E) 19:56:22 29.354 - 29.394 USB, Beacon 29.352 USB
OPAL 31 Oct 19:43:49 19:47:46 25° 296° (WNW) 19:51:43 ?
STRAND 1 31 Oct 20:00:51 20:06:00 73° 103° (ESE) 20:11:07 ?
AO-40 31 Oct 20:01:01 22:21:17 21° 113° (ESE) 23:32:04 Beacon 2401.320
HO-68 31 Oct 20:04:14 20:10:03 28° 61° (ENE) 20:15:53 435.675 MHz FM
KITSAT 1 31 Oct 20:31:10 20:39:17 81° 60° (ENE) 20:47:22 435.175 FM
SO-50 31 Oct 20:44:54 20:49:46 75° 241° (WSW) 20:54:38 436.795 FM
UKube-1 31 Oct 20:50:03 20:52:01 13° 63° (ENE) 20:53:59 145.840 MHz, 145.915 MHz
Oscar 10/S400 31 Oct 20:56:21 21:35:28 54° 202° (SSW) 06:50:16 145.825 - 145.975 CW/USB, Beacon 145.810 USB
Oscar 11 31 Oct 21:22:54 21:26:30 26° 69° (ENE) 21:30:05 145.825 FM, Beacon 2401.500 USB
UOSAT-12 31 Oct 21:27:35 21:31:48 31° 50° (NE) 21:35:57 437.025 FM, 437.400 FM
FUNcube-1 31 Oct 21:40:59 21:44:06 19° 67° (ENE) 21:47:10 145.950 - 145.970 MHz USB
STRAND 1 31 Oct 21:42:02 21:44:32 14° 299° (WNW) 21:47:03 ?
MaSat-1 31 Oct 21:48:23 21:51:47 28° 109° (ESE) 21:54:54 437.345 MHz
RS-15 31 Oct 21:48:57 22:00:00 90° 300° (WNW) 22:10:59 29.354 - 29.394 USB, Beacon 29.352 USB
HO-68 31 Oct 21:50:17 21:57:17 57° 258° (WSW) 22:04:21 435.675 MHz FM
UKube-1 31 Oct 22:23:25 22:27:41 57° 259° (W) 22:32:00 145.840 MHz, 145.915 MHz
KITSAT 1 31 Oct 22:28:19 22:33:44 20° 258° (WSW) 22:39:08 435.175 FM
ZACube-1 31 Oct 22:32:48 22:37:19 69° 75° (ENE) 22:41:45 437.345 MHz
Oscar 11 31 Oct 22:59:02 23:02:36 25° 265° (W) 23:06:10 145.825 FM, Beacon 2401.500 USB
UOSAT-12 31 Oct 23:07:48 23:11:52 29° 247° (WSW) 23:15:51 437.025 FM, 437.400 FM
FUNcube-1 31 Oct 23:15:55 23:20:10 40° 262° (W) 23:24:22 145.950 - 145.970 MHz USB
MaSat-1 31 Oct 23:24:18 23:27:07 19° 301° (WNW) 23:29:45 437.345 MHz
RS-15 01 Nov 00:04:50 00:13:56 29° 326° (NW) 00:23:09 29.354 - 29.394 USB, Beacon 29.352 USB
ZACube-1 01 Nov 00:13:33 00:14:05 10° 270° (W) 00:14:37 437.345 MHz
Oscar 16 01 Nov 01:42:13 01:45:45 19° 93° (E) 01:49:16 437.025 USB, Beacon 2401.1428
Sapphire 01 Nov 01:52:49 01:57:27 30° 108° (ESE) 02:02:06 437.095 MHz 1200 baud AX-25 AFSK
AO-Echo 01 Nov 02:13:04 02:16:56 20° 93° (E) 02:20:45 ?
PCSat 01 Nov 02:13:43 02:18:55 51° 113° (ESE) 02:24:09 145.825 MHz
JAS-1B 01 Nov 02:15:14 02:22:17 46° 100° (E) 02:30:33 435.800 - 435.900 CW/SSB
Uribyol 2 01 Nov 02:16:25 02:19:35 16° 92° (E) 02:22:44 436.500 FM
ITAMSAT 1 01 Nov 02:24:12 02:27:45 18° 93° (E) 02:31:17 435.822 SSB
RS-15 01 Nov 02:25:13 02:31:39 17° 1° (N) 02:38:09 29.354 - 29.394 USB, Beacon 29.352 USB
Oscar 19 01 Nov 02:33:06 02:38:10 58° 101° (E) 02:43:12 437.125 CW, 437.150 USB
AO-27 01 Nov 03:10:48 03:15:55 53° 100° (E) 03:20:59 436.795 MHz FM
Oscar 16 01 Nov 03:20:25 03:25:20 48° 288° (WNW) 03:30:14 437.025 USB, Beacon 2401.1428
Gurwin Techsat 1B 01 Nov 03:29:26 03:34:28 42° 99° (E) 03:39:29 435.225 FM
TMSAT-1 01 Nov 03:35:33 03:40:24 35° 97° (E) 03:45:13 436.925 FM
Sapphire 01 Nov 03:35:45 03:40:43 36° 306° (NW) 03:45:44 437.095 MHz 1200 baud AX-25 AFSK
AO-Echo 01 Nov 03:50:48 03:55:54 48° 289° (WNW) 04:00:55 ?
Uribyol 2 01 Nov 03:54:19 03:59:24 56° 288° (WNW) 04:04:26 436.500 FM
PCSat 01 Nov 03:58:18 04:02:36 24° 310° (NW) 04:06:57 145.825 MHz
AO-7 01 Nov 04:00:40 04:05:51 18° 91° (E) 04:11:00 29.400 - 29.500 MHz
ITAMSAT 1 01 Nov 04:02:28 04:07:31 50° 288° (WNW) 04:12:30 435.822 SSB
JAS-1B 01 Nov 04:06:16 04:12:42 37° 293° (WNW) 04:20:10 435.800 - 435.900 CW/SSB
Oscar 19 01 Nov 04:13:51 04:17:00 17° 297° (WNW) 04:20:09 437.125 CW, 437.150 USB
RS-15 01 Nov 04:39:42 04:49:14 31° 36° (NE) 04:59:01 29.354 - 29.394 USB, Beacon 29.352 USB
PANSAT 01 Nov 04:47:40 04:49:59 15° 172° (S) 04:52:17 not established
AO-27 01 Nov 04:51:26 04:54:59 19° 297° (WNW) 04:58:30 436.795 MHz FM
Gurwin Techsat 1B 01 Nov 05:10:01 05:14:09 24° 295° (WNW) 05:18:16 435.225 FM
TMSAT-1 01 Nov 05:15:44 05:20:09 27° 293° (WNW) 05:24:33 436.925 FM
Saudisat 1A 01 Nov 05:18:00 05:21:43 27° 113° (ESE) 05:25:27 436.775 MHz
OPAL 01 Nov 05:18:03 05:23:04 59° 71° (ENE) 05:28:02 ?
STRAND 1 01 Nov 05:40:45 05:42:11 11° 59° (ENE) 05:43:38 ?
Uosat F 01 Nov 05:42:35 05:47:40 81° 103° (ESE) 05:52:41 435.120 FM
JAS-2 01 Nov 05:46:57 05:53:59 35° 94° (E) 06:00:42 435.800 - 435.900 CW/SSB, 435.910 FM
AO-7 01 Nov 05:51:09 05:59:31 88° 288° (WNW) 06:07:53 29.400 - 29.500 MHz
PANSAT 01 Nov 06:26:59 06:29:29 17° 185° (S) 06:31:59 not established
Hamsat 01 Nov 06:27:00 06:30:51 33° 97° (E) 06:34:42 145.90 MHz
RS-15 01 Nov 06:51:48 07:03:04 87° 241° (WSW) 07:14:50 29.354 - 29.394 USB, Beacon 29.352 USB
Saudisat 1A 01 Nov 06:57:20 07:01:11 30° 310° (NW) 07:05:04 436.775 MHz
OPAL 01 Nov 06:59:22 07:02:16 15° 266° (W) 07:05:10 ?
STRAND 1 01 Nov 07:15:26 07:20:35 89° 256° (WSW) 07:25:46 ?
Uosat F 01 Nov 07:23:52 07:25:43 12° 300° (WNW) 07:27:35 435.120 FM
JAS-2 01 Nov 07:31:35 07:39:04 50° 291° (WNW) 07:46:18 435.800 - 435.900 CW/SSB, 435.910 FM
MaSat-1 01 Nov 07:33:47 07:35:51 23° 60° (ENE) 07:37:50 437.345 MHz
AO-7 01 Nov 07:45:42 07:51:10 20° 308° (NW) 07:56:40 29.400 - 29.500 MHz
Hamsat 01 Nov 08:03:32 08:06:33 19° 292° (WNW) 08:09:35 145.90 MHz
SO-67 01 Nov 08:20:27 08:23:54 83° 282° (WNW) 08:27:20 435.3500 MHz FM
RS-15 01 Nov 09:06:32 09:13:53 20° 260° (W) 09:21:27 29.354 - 29.394 USB, Beacon 29.352 USB
KITSAT 1 01 Nov 09:10:14 09:11:33 10° 98° (E) 09:12:51 435.175 FM
HO-68 01 Nov 09:19:43 09:25:55 31° 96° (E) 09:32:04 435.675 MHz FM
